Regional Weather Roundup
Issued by NWS

Home | Current Version | Previous Version | Text Only | Print | Product List | Glossary Off
Versions: 1 2 3 4 5 6 7 8 9 10 11 12 13 14 15 16 17 18 19 20 21 22 23 24 25 26 27 28 29 30 31 32 33 34 35 36 37 38 39 40 41 42 43 44 45 46 47 48 49 50

666
ASUS43 KOAX 232010
RWRNE

WEATHER ROUNDUP FOR NEBRASKA
NATIONAL WEATHER SERVICE OMAHA NE
200 PM CST THU FEB 23 2017

NOTES: SATELLITE DATA IS BEING USED TO AUGMENT CLOUD COVER ABOVE
       12000 FEET.
       "FAIR" INDICATES FEW OR NO CLOUDS BELOW 12,000 FEET WITH NO
       SIGNIFICANT WEATHER AND/OR OBSTRUCTIONS TO VISIBILITY.

  * THESE STATIONS DO NOT REPORT WEATHER SUCH AS RAIN...SNOW OR FOG.

NEZ001>004-019>022-054>056-232100-
NEBRASKA PANHANDLE

CITY           SKY/WX    TMP DP  RH WIND       PRES   REMARKS
SCOTTSBLUFF    LGT SNOW  23  18  81 NE20G31   29.69S VSB 3/4 WCI   8
ALLIANCE       HVY SNOW  22  19  89 NE21      29.67S VSB 1/4 WCI   6
CHADRON        FOG       25  21  85 N18       29.79S VSB 1/2 WCI  11
KIMBALL        LGT SNOW  24  24  98 N21       29.61S VSB 3/4 WCI  10
SIDNEY         SNOW      23  20  88 NE18      29.62R VSB 1/2 WCI   9
$$

NEZ057>060-069>072-079>082-232100-
SOUTHWEST NEBRASKA

CITY           SKY/WX    TMP DP  RH WIND       PRES   REMARKS
NORTH PLATTE   CLOUDY    30  23  75 NE18      29.63R WCI  18
IMPERIAL       FRZ RAIN  28  26  92 NE21G26   29.59S FOG     WCI  15
LEXINGTON      CLOUDY    32  30  92 NE16      29.62R WCI  21
MCCOOK         FRZ RAIN  32  31  96 NE21      29.57F VSB 1   WCI  20
OGALLALA       SNOW      28  25  89 NE14      29.62S VSB 1/2 WCI  17
$$

NEZ005>010-023>029-035>040-094-232100-
NORTH CENTRAL NEBRASKA

CITY           SKY/WX    TMP DP  RH WIND       PRES   REMARKS
VALENTINE      SNOW      26  22  84 NE22G33   29.76F VSB 1/4 WCI  12
AINSWORTH      SNOW      27  26  98 NE24G31   29.73F VSB 1/2 WCI  12
BROKEN BOW     CLOUDY    30  26  85 NE21G30   29.60F WCI  17
O`NEILL        LGT SNOW  30  29  94 NE23G29   29.73F WCI  17
ORD            CLOUDY    31  26  82 NE21G32   29.63F WCI  18
THEDFORD       LGT SNOW  28  25  91 NE22G28   29.66F WCI  13
$$

NEZ041-046>049-061>064-073>077-083>087-232100-
SOUTH CENTRAL NEBRASKA

CITY           SKY/WX    TMP DP  RH WIND       PRES   REMARKS
GRAND ISLAND   CLOUDY    33  32  96 NE22G32   29.61F WCI  21
AURORA         CLOUDY    35  33  89 NE25G33   29.59F WCI  23
HASTINGS       CLOUDY    35  32  88 NE24G30   29.58F WCI  23
HEBRON         CLOUDY    41  33  73 NE17G25   29.54F
HOLDREGE       CLOUDY    32  31  94 NE20G25   29.57F WCI  21
KEARNEY *      CLOUDY    34  28  80 NE21G29   29.59F WCI  22
YORK           CLOUDY    37  32  81 NE21G29   29.59F WCI  27
$$

NEZ011>018-030>034-042>045-232100-
NORTHEAST NEBRASKA

CITY           SKY/WX    TMP DP  RH WIND       PRES   REMARKS
NORFOLK        CLOUDY    33  28  81 NE20G31   29.68F WCI  21
ALBION         CLOUDY    34  29  82 NE22G31   29.66F WCI  22
BLAIR          CLOUDY    39  34  82 NE20      29.64S WCI  29
FREMONT        CLOUDY    37  33  84 NE15      29.68R WCI  28
TEKAMAH        CLOUDY    37  32  82 NE21      29.69F WCI  26
WAYNE          CLOUDY    34  30  85 NE22G30   29.71F WCI  22
$$

NEZ050>053-065>068-078-088>093-232100-
SOUTHEAST NEBRASKA

CITY           SKY/WX    TMP DP  RH WIND       PRES   REMARKS
LINCOLN        CLOUDY    42  34  73 NE21      29.61F
OMAHA EPPLEY   CLOUDY    42  34  73 NE13      29.64F
BEATRICE       CLOUDY    42  37  82 NE16      29.56F
FALLS CITY     CLOUDY    49  39  68 E13       29.51F
NEBRASKA CITY  CLOUDY    47  34  62 NE17      29.57F
PLATTSMOUTH    CLOUDY    43  34  69 NE15      29.60F
$$

NEZ044-045-051>053-067-232100-
OMAHA AREA

CITY           SKY/WX    TMP DP  RH WIND       PRES   REMARKS
OMAHA EPPLEY   CLOUDY    42  34  73 NE13      29.64F
BLAIR          CLOUDY    39  34  82 NE20      29.64S WCI  29
FREMONT        CLOUDY    37  33  84 NE15      29.68R WCI  28
MILLARD        CLOUDY    44  37  75 NE7       29.64F
OFFUTT AFB     CLOUDY    43  35  74 NE15      29.62F
PLATTSMOUTH    CLOUDY    43  34  69 NE15      29.60F
WAHOO          CLOUDY    40  33  78 NE21      29.65S WCI  30
$$




USA.gov is the U.S. government's official web portal to all federal, state and local government web resources and services.